Location: Aalsum
(53.3404°N, 6.0062°E)
Time: 09:13:12
(UTC+00:00)

RESURS DK-1 - Pass Details

Date: 28 January 2023
Orbit: 549 x 557 km, 69.9° (Epoch: 19 March)

Event Time Altitude Azimuth Distance (km) Brightness Sun altitude
Rises 16:53:31 0° 328° (NNW) 2,738 6.0 -6.5°
Reaches altitude 10° 16:57:02 10° 359° (N) 1,843 4.8 -7.0°
Maximum altitude 16:58:44 12° 24° (NNE) 1,705 4.4 -7.3°
Drops below altitude 10° 17:00:25 10° 48° (NE) 1,843 4.4 -7.5°
Enters shadow 17:00:55 - 55° (NE) 1,931 4.5 -7.6°
